Home   Weather   St. Pölten   Past weeks

Flag for Austria Past Weather in St. Pölten, Lower Austria, Austria — Yesterday and Last 2 Weeks

Now
65 °F

Passing clouds.


Feels Like: 65 °F
Forecast: 58 / 84 °F
Wind: 6 mph from West

Location: Wien / Hohe Warte

Current Time: Jul 28, 2017 at 2:55:56 am

Latest Report: Jul 28, 2017 at 2:00 am


Visibility: 22 mi

Pressure: 29.85 "Hg

Humidity: 75%

Dew Point: 57 °F

Location of St. PöltenLocation

Past Weather in St. Pölten — Graph

°F

St. Pölten Temperature Yesterday

Maximum temperature yesterday: 69 °F (at 5:00 pm)
Minimum temperature yesterday: 57 °F (at 4:00 am)
Average temperature yesterday: 62 °F

High & Low Weather Summary for the Past Weeks

 TemperatureHumidityPressure
High94 °F (Jul 20, 4:00 pm)93% (Jul 21, 2:00 am)30.24 "Hg (Jul 21, 2:00 am)
Low54 °F (Jul 14, 6:00 am)25% (Jul 20, 5:00 pm)29.64 "Hg (Jul 24, 4:00 pm)
Average70 °F61%29.94 "Hg
* Reported Jul 13 1:00 am — Jul 28 1:00 am, St. Pölten. Weather by CustomWeather, © 2017

Note: Actual official high and low records may vary slightly from our data, if they occured in-between our weather recording intervals... More about our weather records

Advertising

St. Pölten Weather History for the Previous 24 Hours

Scroll right to see more
 ConditionsComfort  
Time TempWeatherWind HumidityBarometerVisibility
1:00 am
Fri, Jul 28
64 °FMild.5 mph78%29.85 "HgN/A
12:00 am65 °FMild.6 mph76%29.84 "HgN/A
11:00 pm
Thu, Jul 27
65 °FPassing clouds.7 mph75%29.85 "Hg22 mi
10:00 pm65 °FOvercast.6 mph73%29.83 "Hg22 mi
9:00 pm65 °FOvercast.6 mph72%29.83 "Hg19 mi
8:00 pm67 °FOvercast.5 mph75%29.82 "Hg16 mi
7:00 pm67 °FLight rain. Scattered clouds.No wind78%29.81 "Hg22 mi
6:00 pm67 °FLight rain. Overcast.5 mph72%29.82 "Hg22 mi
5:00 pm69 °FOvercast.2 mph63%29.81 "Hg22 mi
4:00 pm69 °FOvercast.5 mph69%29.82 "Hg25 mi
3:00 pm68 °FOvercast.5 mph69%29.82 "Hg22 mi
2:00 pm65 °FLight rain. Overcast.5 mph76%29.84 "Hg22 mi
1:00 pm64 °FLight rain. Overcast.7 mph79%29.83 "Hg19 mi
12:00 pm63 °FLight rain. Overcast.7 mph83%29.83 "Hg17 mi
11:00 am62 °FLight rain. Overcast.8 mph85%29.83 "Hg19 mi
10:00 am60 °FLight rain. Overcast.7 mph89%29.82 "Hg14 mi
9:00 am59 °FLight rain. Overcast.7 mph90%29.82 "Hg12 mi
8:00 am58 °FLight rain. Overcast.6 mph91%29.81 "Hg7 mi
7:00 am58 °FLight rain. Overcast.7 mph91%29.80 "Hg9 mi
6:00 am58 °FFog.8 mph91%29.78 "HgN/A
5:00 am58 °FCool.8 mph91%29.77 "HgN/A
4:00 am57 °FFog.7 mph92%29.77 "HgN/A
3:00 am58 °FFog.8 mph90%29.76 "HgN/A
2:00 am59 °FCool.7 mph90%29.76 "HgN/A
Weather by CustomWeather, © 2017

See weather overviewHow to use our weather pages